Other Public Products
Issued by NWS Grand Forks, ND

Home | Current Version | Previous Version | Graphics & Text | Print | Product List | Glossary On
Versions: 1 2 3 4 5 6 7 8 9 10 11 12 13 14 15 16 17 18 19 20 21 22 23 24 25 26 27 28 29 30 31 32 33 34 35 36 37 38 39 40 41 42 43 44 45 46 47 48 49 50
000
FPUS83 KFGF 250531
OPUFGF
PRAIRIE TO PINES WEATHER ROUNDUP
NATIONAL WEATHER SERVICE EASTERN NORTH DAKOTA/GRAND FORKS ND
1200 AM CDT THU AUG 25 2016

 **SATELLITE DATA USED TO AUGMENT SKY COVER AT AUTOMATED STATIONS**
 *****  WEATHER ACROSS EASTERN NORTH DAKOTA  *****

CITY           SKY/WX    TMP DP  RH WIND       PRES   REMARKS
GRAND FORKS    CLEAR     59  52  77 SW9       29.89F
GRAND FORKS AF CLEAR     57  52  81 W7        29.90F
GRAND CITY NWS   N/A     59 N/A N/A W9          N/A
BUXTON           N/A     61  57  86 W8          N/A
DEVILS LAKE    CLEAR     59  54  83 W16       29.93S
FARGO          CLEAR     61  51  70 W12       29.95F
WAHPETON ARPT  CLEAR     57  52  82 SW8       29.99S
$$

 *****  WEATHER ACROSS CENTRAL AND WESTERN NORTH DAKOTA  *****

CITY           SKY/WX    TMP DP  RH WIND       PRES   REMARKS
JAMESTOWN      CLEAR     58  50  75 W13G21    30.00S
BISMARCK       MOCLDY    57  50  77 W14       30.08S
MINOT          CLOUDY    56  53  90 W18G25    30.02S
MINOT AFB      CLOUDY    54  52  94 NW17      30.01R
GARRISON         N/A     56  49  77 NW18G29   30.05F
WILLISTON      NOT AVBL
DICKINSON      MOCLDY    53  47  79 W17       30.14S
HETTINGER      CLEAR     52  44  74 W13       30.19S
$$

 *****  OTHER OBSERVATIONS NORTHEAST NORTH DAKOTA  *****

CITY           SKY/WX    TMP DP  RH WIND       PRES   REMARKS
WALHALLA       FAIR      59  55  88 W8        29.86S
LANGDON        CLOUDY    55  55 100 W10       29.89S
CAVALIER       FAIR      59  54  82 W7        29.86S
GRAFTON        FAIR      57  54  88 SW7       29.89S
CANDO          FAIR      55  55 100 W10       29.94F
FORT TOTTEN      N/A     57  51  81 W7        29.95
ROLLA          CLOUDY    55  55 100 NW8       29.93S FOG
RUGBY          NOT AVBL
 ***** THE ABOVE OBSERVATIONS ARE NON NWS ARE NOT QUALITY
        CONTROLLED AND MAY MIS-REPORT RAIN FOR SNOW...
$$

 *****  OTHER OBSERVATIONS SOUTHEAST NORTH DAKOTA *****

CITY           SKY/WX    TMP DP  RH WIND       PRES   REMARKS
COOPERSTOWN    NOT AVBL
VALLEY CITY    FAIR      57  55  94 W14       30.00F
OAKES            N/A    N/A N/A N/A MISG        N/A
GWINNER        FAIR      57  52  82 W8        30.01S
SHEYENNE NWR     N/A     53  49  87 W5        29.95S
BUFFALO          N/A     56  51  81 W7          N/A
WYNDMERE         N/A     57  54  88 W3          N/A
 ***** THE ABOVE OBSERVATIONS ARE NON NWS ARE NOT QUALITY
       CONTROLLED AND MAY MIS-REPORT RAIN FOR SNOW...
$$

  *****  WEATHER ACROSS NORTHERN MINNESOTA  *****

CITY           SKY/WX    TMP DP  RH WIND       PRES   REMARKS
FLAG ISLAND    CLEAR     63  54  72 SW5       29.83S HAZE
WARROAD        CLEAR     57  54  88 SW3       29.86F
ROSEAU         CLEAR     57  54  88 SW6       29.85F
HALLOCK        CLEAR     61  55  82 SW12      29.84F
THF RVR FALLS  CLEAR     59  51  75 SW9       29.90F
HALSTAD          N/A     59  52  77 W9          N/A
FOSSTON        CLEAR     54  50  87 SW7       29.94S
BAUDETTE       CLEAR     56  52  86 SW6       29.86F
WASKISH        CLEAR     66  55  68 W14G23    29.89S
CROOKSTON      CLEAR     61  52  72 W10       29.91S
$$
  *****  WEATHER ACROSS CENTRAL AND WEST MINNESOTA  *****

CITY           SKY/WX    TMP DP  RH WIND       PRES   REMARKS
BEMIDJI        CLEAR     58  52  81 SW7       29.93S
PARK RAPIDS    CLEAR     56  52  86 SW6       29.96S
WADENA         CLEAR     55  52  88 W6        29.97F
DETROIT LAKES  CLEAR     63  52  67 W9        29.98S
MOORHEAD       PTCLDY    57  52  82 SW7       29.97S
FERGUS FALLS   CLEAR     57  52  82 W6        30.01R
ELBOW LAKE     FAIR      57  54  89 SW8       30.01S
MORRIS MN      CLEAR     59  55  88 SW6       30.01R
STAPLES        CLEAR     57  54  88 SW5       29.98S
WHEATON        CLEAR     61  57  88 SW5       30.03R
$$
  *****  WEATHER ELSEWHERE ACROSS MINNESOTA  *****

CITY           SKY/WX    TMP DP  RH WIND       PRES   REMARKS
DULUTH         CLOUDY    60  55  83 W8        29.94S
INTRNTL FALLS  CLEAR     52  50  93 CALM      29.88F
ELY            CLOUDY    59  52  77 W5        29.91S
CLOQUET        PTCLDY    61  54  77 W3        29.95S
BRAINERD       CLEAR     56  55  97 SW5       29.97R
HIBBING        CLEAR     52  51  97 CALM      29.93S
ALEXANDRIA     CLEAR     59  55  87 W7        30.01S
SAINT CLOUD    CLEAR     59  58  96 SW5       30.00R
MINNEAPOLIS    CLOUDY    69  59  70 SW6       30.01R
$$

  *****  WEATHER ACROSS SOUTH DAKOTA  *****

CITY           SKY/WX    TMP DP  RH WIND       PRES   REMARKS
SIOUX FALLS    PTCLDY    62  58  86 CALM      30.07F
BROOKINGS      CLEAR     60  55  83 W5        30.06F
WATERTOWN      CLEAR     61  55  81 SW9       30.04S
HURON          CLEAR     62  54  74 SW10      30.05F
SISSETON         N/A     56  53  90 CALM      30.00S
ABERDEEN       PTCLDY    60  50  69 W8        30.05R
MITCHELL       CLEAR     64  54  69 SW9       30.08S
PIERRE         CLEAR     62  49  62 NW10      30.10R
MOBRIDGE       NOT AVBL
RAPID CITY     CLOUDY    60  44  55 N16       30.22S
$$

  *****  SOME WEATHER IN NEARBY STATES *****

CITY           SKY/WX    TMP DP  RH WIND       PRES   REMARKS
GLASGOW MT     NOT AVBL
GREAT FALLS MT CLOUDY    53  40  61 SE5       30.34S
CHEYENNE WY    CLOUDY    53  46  77 S6        30.28F
SCOTTSBLUFF NE MOCLDY    58  48  69 NE14      30.22S
OMAHA NE       NOT AVBL
DES MOINES IA  CLOUDY    71  69  93 NW6       30.01R
DAVENPORT IA   MOCLDY    71  69  93 NW6       29.99R
CHICAGO IL     CLOUDY    77  71  82 SW7       29.96F
EAU CLAIRE WI  CLOUDY    65  58  78 SW5       29.97R
LA CROSSE WI   NOT AVBL
$$

  *****  SOME NATIONAL WEATHER *****

CITY           SKY/WX    TMP DP  RH WIND       PRES   REMARKS
LA GUARDIA NY  PTCLDY    76  61  59 SW9       30.15F
RALEIGH NC     PTCLDY    71  62  73 SE5       30.21F
ATLANTA GA     NOT AVBL
NEW ORLEANS LA CLOUDY    85  77  77 E5        30.08F HX  95
OKLAHOMA CITY  PTCLDY    80  69  69 S15       30.04R
ALBUQUERQUE NM NOT AVBL
SALT LAKE CITY PTCLDY    67  28  23 SW3       30.10R
LOS ANGELES CA CLEAR     66  59  78 W5        29.96R
BOISE ID       CLEAR     66  31  27 W3        30.05F
SEATTLE WA     CLEAR     76  52  43 NE6       30.15S
$$

*** WEATHER ACROSS MANITOBA...SASKATCHEWAN AND ONTARIO ***
                ***ONTARIO***

CITY           SKY/WX    TMP DP  RH WIND       PRES   REMARKS
GERALDTON      MOCLDY    64  63  94 NW3       29.78S
THUNDER BAY    PTCLDY    64  59  82 W7        29.81S
SIOUX LOOKOUT  PTCLDY    61  55  82 VRB2      29.80S
TORONTO        MOCLDY    77  64  65 SW8       29.93F
BIG TROUT LK   MOCLDY    45  45 100 N2        29.90F
PICKLE LAKE    NOT AVBL
DRYDEN         CLEAR     63  54  72 W8        29.83S
KENORA         MOCLDY    63  54  72 SW6       29.84
$$
                *** MANITOBA***

CITY           SKY/WX    TMP DP  RH WIND       PRES   REMARKS
BRANDON        LGT RAIN  57  55  94 N12G17    29.90S
DAUPHIN        CLOUDY    55  54  94 N8        29.97R
ISLAND LAKE    MOCLDY    57  52  82 NE6       29.94S
PILOT MOUND      N/A     55  54  94 W7          N/A
THE PAS        CLEAR     54  46  76 W3        30.00F
THOMPSON       PTCLDY    50  45  81 CALM      29.95F
WINNIPEG       MOCLDY    55  54  94 NW2       29.82R
LYNN LAKE      CLEAR     55  50  82 MISG      29.99F
CHURCHILL      PTCLDY    48  43  81 SW7       29.88F
GILLAM         CLEAR     50  39  66 W3        29.91F
$$
                ***SASKATCHEWAN***

CITY           SKY/WX    TMP DP  RH WIND       PRES   REMARKS
ESTEVAN        CLOUDY    54  48  82 NW16G25   30.09
KINDERSLEY     CLEAR     52  46  82 SW2       30.20F
LLOYDMINSTER   PTCLDY    52  46  82 W9        30.17S
PRINCE ALBERT  PTCLDY    48  46  93 W3        30.10S
REGINA         MOCLDY    52  48  87 W7        30.16S
YORKTON        CLOUDY    52  50  93 W6        30.07F  C1F1C2F2C3F3C4F4C5F5C6F6C7F7C8F8C9F9CaFaCbFbCcFcCdFdCe!



USA.gov is the U.S. government's official web portal to all federal, state and local government web resources and services.